Location: ??????????
(48.5701°N, 37.7703°E)
Time: 19:30:17
(UTC+00:00)

SL-16 R/B - Pass Details

Date: 14 July 2020
Orbit: 842 x 846 km, 71.0° (Epoch: 11 August)

Event Time Altitude Azimuth Distance (km) Brightness Sun altitude
Rises 00:20:31 0° 334° (NNW) 3,418 5.7 -10.7°
Reaches altitude 10° 00:23:04 10° 340° (NNW) 2,479 5.1 -10.4°
Maximum altitude 00:28:34 48° 55° (NE) 1,093 3.3 -9.8°
Drops below altitude 10° 00:34:03 10° 129° (SE) 2,465 4.7 -9.2°
Sets 00:36:34 0° 135° (SE) 3,396 5.3 -8.9°
